• In Latvia
  • List of Countries
  • For 7 days
  • Water Temperature
  • Satellite Maps
  • Weather Map
  • Weather Widgets
  • user-avatar
    Login

    Hourly Weather Ligatne

    Today, 23 July, Monday

    Time Temperature Precipitation Wind Pressure Humidity
    00:00 +19°C° 0 mm 1 mps 750 mmHg 87%
    01:00 +19°C° 0 mm 1 mps 750 mmHg 88%
    02:00 +18°C° 0 mm 1 mps 750 mmHg 89%
    03:00 +18°C° 0 mm 1 mps 750 mmHg 90%
    04:00 +18°C° 0 mm 1 mps 750 mmHg 90%
    05:00 +17°C° 0 mm 2 mps 750 mmHg 91%
    06:00 +19°C° 0 mm 2 mps 750 mmHg 85%
    07:00 +20°C° 0 mm 2 mps 750 mmHg 80%
    08:00 +23°C° 0 mm 2 mps 750 mmHg 74%
    09:00 +24°C° 0 mm 2 mps 750 mmHg 70%
    10:00 +25°C° 0 mm 2 mps 750 mmHg 66%
    11:00 +26°C° 0 mm 2 mps 750 mmHg 62%
    12:00 +26°C° 0 mm 2 mps 750 mmHg 60%
    13:00 +26°C° 0 mm 2 mps 750 mmHg 58%
    14:00 +27°C° 0 mm 2 mps 750 mmHg 56%
    15:00 +26°C° 0 mm 3 mps 750 mmHg 58%
    16:00 +26°C° 0 mm 3 mps 750 mmHg 60%
    17:00 +25°C° 0 mm 3 mps 749 mmHg 63%
    18:00 +24°C° 0.1 mm 3 mps 750 mmHg 67%
    19:00 +23°C° 0.1 mm 2 mps 750 mmHg 72%
    20:00 +21°C° 0.1 mm 2 mps 750 mmHg 77%
    21:00 +20°C° 0 mm 2 mps 750 mmHg 79%
    22:00 +19°C° 0 mm 2 mps 750 mmHg 80%
    23:00 +19°C° 0 mm 2 mps 750 mmHg 82%

    Tomorrow, 24 July, Tuesday

    Time Temperature Precipitation Wind Pressure Humidity
    00:00 +19°C° 0 mm 2 mps 750 mmHg 84%
    01:00 +18°C° 0 mm 2 mps 750 mmHg 86%
    02:00 +19°C° 0 mm 1 mps 750 mmHg 89%
    03:00 +18°C° 0.2 mm 2 mps 750 mmHg 90%
    04:00 +18°C° 0.2 mm 2 mps 750 mmHg 91%
    05:00 +18°C° 0.2 mm 2 mps 750 mmHg 92%
    06:00 +19°C° 0.3 mm 2 mps 750 mmHg 91%
    07:00 +20°C° 0.3 mm 2 mps 750 mmHg 90%
    08:00 +21°C° 0.3 mm 2 mps 750 mmHg 89%
    09:00 +21°C° 0.2 mm 2 mps 751 mmHg 88%
    10:00 +23°C° 0.2 mm 1 mps 751 mmHg 87%
    11:00 +23°C° 0.2 mm 1 mps 751 mmHg 86%
    12:00 +24°C° 0.6 mm 1 mps 750 mmHg 82%
    13:00 +25°C° 0.6 mm 1 mps 750 mmHg 79%
    14:00 +26°C° 0.6 mm 2 mps 750 mmHg 75%
    15:00 +26°C° 1 mm 2 mps 750 mmHg 79%
    16:00 +26°C° 1 mm 2 mps 750 mmHg 82%
    17:00 +26°C° 1 mm 3 mps 750 mmHg 85%
    18:00 +25°C° 0.5 mm 2 mps 750 mmHg 88%
    19:00 +24°C° 0.5 mm 2 mps 750 mmHg 90%
    20:00 +23°C° 0.5 mm 2 mps 750 mmHg 92%
    21:00 +21°C° 0 mm 2 mps 750 mmHg 94%
    22:00 +20°C° 0 mm 2 mps 750 mmHg 95%
    23:00 +19°C° 0 mm 2 mps 751 mmHg 96%

    Day after tomorrow, 25 July, Wednesday

    Time Temperature Precipitation Wind Pressure Humidity
    00:00 +19°C° 0 mm 2 mps 751 mmHg 96%
    01:00 +18°C° 0 mm 2 mps 751 mmHg 96%
    02:00 +18°C° 0 mm 2 mps 751 mmHg 97%
    03:00 +18°C° 0 mm 2 mps 751 mmHg 97%
    04:00 +18°C° 0 mm 2 mps 751 mmHg 97%
    05:00 +17°C° 0 mm 2 mps 751 mmHg 98%
    06:00 +19°C° 0 mm 2 mps 751 mmHg 95%
    07:00 +20°C° 0 mm 2 mps 752 mmHg 92%
    08:00 +23°C° 0 mm 2 mps 752 mmHg 89%
    09:00 +24°C° 0.1 mm 2 mps 752 mmHg 81%
    10:00 +26°C° 0.1 mm 2 mps 752 mmHg 72%
    11:00 +27°C° 0.1 mm 2 mps 752 mmHg 64%
    12:00 +28°C° 0.6 mm 2 mps 752 mmHg 65%
    13:00 +28°C° 0.6 mm 2 mps 751 mmHg 66%
    14:00 +28°C° 0.6 mm 2 mps 751 mmHg 67%
    15:00 +28°C° 1.4 mm 2 mps 751 mmHg 73%
    16:00 +27°C° 1.4 mm 2 mps 751 mmHg 78%
    17:00 +27°C° 1.4 mm 2 mps 751 mmHg 83%
    18:00 +26°C° 0.4 mm 2 mps 751 mmHg 86%
    19:00 +25°C° 0.4 mm 2 mps 751 mmHg 89%
    20:00 +24°C° 0.4 mm 2 mps 751 mmHg 92%
    21:00 +23°C° 0.1 mm 2 mps 752 mmHg 93%
    22:00 +21°C° 0.1 mm 2 mps 752 mmHg 94%
    23:00 +21°C° 0.1 mm 2 mps 752 mmHg 95%

    26 July, Thursday

    Time Temperature Precipitation Wind Pressure Humidity
    00:00 +20°C° 0.6 mm 2 mps 752 mmHg 96%
    01:00 +20°C° 0.6 mm 2 mps 752 mmHg 96%
    02:00 +20°C° 0.6 mm 2 mps 752 mmHg 97%
    03:00 +20°C° 0.5 mm 2 mps 752 mmHg 97%
    04:00 +20°C° 0.5 mm 2 mps 752 mmHg 97%
    05:00 +20°C° 0.5 mm 2 mps 753 mmHg 97%
    06:00 +21°C° 0 mm 2 mps 753 mmHg 95%
    07:00 +23°C° 0 mm 2 mps 753 mmHg 92%
    08:00 +24°C° 0 mm 2 mps 753 mmHg 89%
    09:00 +26°C° 0 mm 2 mps 753 mmHg 79%
    10:00 +27°C° 0 mm 2 mps 753 mmHg 69%
    11:00 +29°C° 0 mm 2 mps 753 mmHg 59%
    12:00 +30°C° 0 mm 2 mps 753 mmHg 56%
    13:00 +30°C° 0 mm 2 mps 753 mmHg 52%
    14:00 +31°C° 0 mm 2 mps 752 mmHg 49%
    15:00 +31°C° 0.1 mm 3 mps 752 mmHg 51%
    16:00 +30°C° 0.1 mm 3 mps 752 mmHg 54%
    17:00 +30°C° 0.1 mm 3 mps 752 mmHg 56%
    18:00 +28°C° 0 mm 3 mps 752 mmHg 64%
    19:00 +27°C° 0 mm 2 mps 753 mmHg 72%
    20:00 +25°C° 0 mm 2 mps 753 mmHg 80%
    21:00 +24°C° 0 mm 2 mps 753 mmHg 83%
    22:00 +23°C° 0 mm 2 mps 753 mmHg 87%
    23:00 +21°C° 0 mm 2 mps 753 mmHg 90%

    27 July, Friday

    Time Temperature Precipitation Wind Pressure Humidity
    00:00 +21°C° 0 mm 2 mps 753 mmHg 91%
    01:00 +20°C° 0 mm 2 mps 753 mmHg 92%
    02:00 +20°C° 0 mm 2 mps 753 mmHg 93%
    03:00 +20°C° 0 mm 2 mps 753 mmHg 94%
    04:00 +20°C° 0 mm 2 mps 753 mmHg 94%
    05:00 +20°C° 0 mm 2 mps 753 mmHg 94%
    06:00 +21°C° 0 mm 2 mps 753 mmHg 88%
    07:00 +24°C° 0 mm 2 mps 753 mmHg 82%
    08:00 +25°C° 0 mm 3 mps 753 mmHg 75%
    09:00 +26°C° 0.2 mm 3 mps 753 mmHg 75%
    10:00 +27°C° 0.2 mm 3 mps 753 mmHg 74%
    11:00 +27°C° 0.2 mm 3 mps 753 mmHg 73%
    12:00 +28°C° 1.2 mm 3 mps 753 mmHg 72%
    13:00 +28°C° 1.2 mm 4 mps 753 mmHg 72%
    14:00 +28°C° 1.2 mm 4 mps 753 mmHg 72%
    15:00 +28°C° 1.2 mm 4 mps 753 mmHg 73%
    16:00 +28°C° 1.2 mm 4 mps 753 mmHg 73%
    17:00 +28°C° 1.2 mm 4 mps 753 mmHg 74%
    18:00 +27°C° 0.7 mm 3 mps 753 mmHg 78%
    19:00 +26°C° 0.7 mm 3 mps 753 mmHg 82%
    20:00 +25°C° 0.7 mm 3 mps 753 mmHg 86%
    21:00 +25°C° 0.3 mm 3 mps 753 mmHg 87%
    22:00 +24°C° 0.3 mm 3 mps 753 mmHg 88%
    23:00 +22°C° 0.3 mm 3 mps 753 mmHg 89%

    28 July, Saturday

    Time Temperature Precipitation Wind Pressure Humidity
    00:00 +22°C° 0.3 mm 3 mps 753 mmHg 90%
    01:00 +21°C° 0.3 mm 3 mps 753 mmHg 91%
    02:00 +21°C° 0.3 mm 3 mps 754 mmHg 93%
    03:00 +21°C° 0 mm 3 mps 754 mmHg 93%
    04:00 +20°C° 0 mm 3 mps 754 mmHg 94%
    05:00 +20°C° 0 mm 3 mps 754 mmHg 94%
    06:00 +22°C° 0 mm 3 mps 754 mmHg 90%
    07:00 +23°C° 0 mm 4 mps 754 mmHg 86%
    08:00 +25°C° 0 mm 4 mps 754 mmHg 81%
    09:00 +27°C° 0 mm 4 mps 754 mmHg 73%
    10:00 +29°C° 0 mm 4 mps 754 mmHg 65%
    11:00 +30°C° 0 mm 5 mps 755 mmHg 56%
    12:00 +32°C° 0 mm 5 mps 755 mmHg 52%
    13:00 +33°C° 0 mm 5 mps 755 mmHg 47%
    14:00 +34°C° 0 mm 5 mps 755 mmHg 42%
    15:00 +33°C° 0 mm 4 mps 755 mmHg 44%
    16:00 +33°C° 0 mm 4 mps 755 mmHg 46%
    17:00 +33°C° 0 mm 4 mps 755 mmHg 47%
    18:00 +30°C° 0 mm 3 mps 755 mmHg 56%
    19:00 +28°C° 0 mm 3 mps 755 mmHg 65%
    20:00 +27°C° 0 mm 2 mps 755 mmHg 73%
    21:00 +26°C° 0 mm 2 mps 756 mmHg 75%
    22:00 +25°C° 0 mm 2 mps 756 mmHg 77%
    23:00 +24°C° 0 mm 2 mps 756 mmHg 78%
    Show more